Regional Weather Roundup
Issued by NWS Charleston, SC

Current Version | Previous Version | Graphics & Text | Print | Product List | Glossary On
Versions: 1 2 3 4 5 6 7 8 9 10 11 12 13 14 15 16 17 18 19 20 21 22 23 24 25 26 27 28 29 30 31 32 33 34 35 36 37 38 39 40 41 42 43 44 45 46 47 48 49 50
000 ASUS42 KCHS 250627 RWRCHS REGIONAL WEATHER ROUNDUP NATIONAL WEATHER SERVICE CHARLESTON SC 200 AM EDT THU MAY 25 2017 NOTE: "FAIR" INDICATES FEW OR NO CLOUDS BELOW 12,000 FEET WITH NO SIGNIFICANT WEATHER AND/OR OBSTRUCTIONS TO VISIBILITY. NOT ALL STATIONS ARE QUALITY CONTROLLED. USE DATA WITH CAUTION... ESPECIALLY DEWPOINT OBSERVATIONS. SCZ027-030-031-034>040-042>050-250700- ...SOUTHEAST SOUTH CAROLINA... CITY SKY/WX TMP DP RH WIND PRES REMARKS N CHARLESTON MOCLDY 72 66 81 SW13 29.57S 6HR MIN TEMP: 71; 6HR MAX TEMP: 74; 6HR PCP: TRACE; WATERFRONT PRK N/A 75 70 84 SW9 29.55F JOHNS ISLAND MOCLDY 75 68 78 SW17G36 29.58S PINOPOLIS N/A 70 68 94 SW8 29.47F MONCKS CORNER CLOUDY 68 64 88 SW12G18 29.57R SUMMERVILLE CLOUDY 68 66 94 SW7 29.58S BEAUFORT MCAS PTCLDY 70 68 93 SW17 29.58F 6HR MIN TEMP: 70; 6HR MAX TEMP: 74; 6HR PCP: TRACE; BEAUFORT ARPT CLOUDY 70 64 83 SW15G23 29.58F HILTON HEAD IS MOCLDY 72 68 88 SW12G18 29.59F WALTERBORO MOCLDY 68 64 88 SW7 29.57F ALLENDALE FAIR 64 64 100 CALM 29.56S ...SOUTHERN MIDLANDS AND PEE DEE... CITY SKY/WX TMP DP RH WIND PRES REMARKS GEORGETOWN MOCLDY 68 68 100 SW8 29.57S KINGSTREE CLOUDY N/A N/A N/A S9 29.54F ORANGEBURG LGT RAIN 65 64 97 SE5 29.55F 6HR MIN TEMP: 65; 6HR MAX TEMP: 70; 6HR PCP: 0.13; BARNWELL MOCLDY 64 64 100 CALM 29.56F AIKEN FAIR 57 57 100 S6 29.59S MANNING CLOUDY 68 66 94 SW21 29.56S COLUMBIA LGT RAIN 64 61 90 SW7 29.53F 6HR MIN TEMP: 63; 6HR MAX TEMP: 71; 6HR PCP: 0.56; SUMTER DRIZZLE 66 63 88 W7 29.51F 6HR MIN TEMP: 66; 6HR MAX TEMP: 71; 6HR PCP: 0.02; FLORENCE MOCLDY 69 68 96 SW9 29.53F 6HR MIN TEMP: 69; 6HR MAX TEMP: 72; 6HR PCP: 0.01; MYRTLE BEACH NOT AVBL N MYRTLE BEACH CLOUDY 73 69 87 SW24G31 29.53F 6HR MIN TEMP: 70; 6HR MAX TEMP: 75; 6HR PCP: 0.86; $$ GAZ063-065-086>088-099>101-113>116-118-119-134>141-150-250700- ...SOUTHEAST GEORGIA... CITY SKY/WX TMP DP RH WIND PRES REMARKS SAVANNAH ARPT MOCLDY 71 65 81 SW13 29.60F 6HR MIN TEMP: 69; 6HR MAX TEMP: 77; 6HR PCP: 0.02; HUNTER AAF CLEAR 69 69 100 SW12G20 29.57F 6HR MIN TEMP: 67; 6HR MAX TEMP: 73; 6HR PCP: 0.06; FORT STEWART CLEAR 67 62 84 W9 29.60S 6HR MIN TEMP: 67; 6HR MAX TEMP: 71; 6HR PCP: 0.14; STATESBORO PTCLDY 64 64 100 SW7 29.60F SYLVANIA PTCLDY 64 64 99 W6 29.58F CLAXTON FAIR N/A N/A N/A SW5 29.61F ...CSRA...CENTRAL AND FAR SOUTHEAST GEORGIA... CITY SKY/WX TMP DP RH WIND PRES REMARKS THOMSON PTCLDY 61 59 91 NW7 29.63R AUGUSTA-BUSH PTCLDY 62 60 93 S3 29.57R 6HR MIN TEMP: 61; 6HR MAX TEMP: 71; 6HR PCP: 0.44; AUGUSTA-DANIEL CLEAR 62 58 86 SW5 29.57S SWAINSBORO FAIR 64 64 100 W6 29.61F VIDALIA NOT AVBL EASTMAN FAIR 62 52 69 W3 29.66F HAZLEHURST MOCLDY 65 65 100 W5 29.64S ALMA PTCLDY 68 64 87 W8 29.65S 6HR MIN TEMP: 68; 6HR MAX TEMP: 71; WAYCROSS PTCLDY 70 70 100 W8 29.66S JESUP MOCLDY 70 64 83 W5 29.64S BAXLEY MOCLDY 66 66 100 W6 29.64F BRUNSWICK CLEAR 70 68 94 SW12G21 29.65 SAINT SIMONS CLEAR 72 68 87 SW17G25 29.64F 6HR MIN TEMP: 72; 6HR MAX TEMP: 74; $$ SCZ027-028-034-036>038-045-046-048>050-GAZ119-141-250700- ...LAKE AND SUPPLEMENTAL COASTAL OBSERVATIONS... STATION/POSITION TIME TEMP WIND PRES WAVE SWELL AIR SEA DIR/SP/G HT/PER HT/PER/DIR (UTC) (F) (DEG/KT/KT) (MB) (FT/S) (FT/S/D) WINYAH BAY 0545 72 240/ 12 1000.0F LAKE MURRAY 0620 67 240/ 10/ 15 999.3 ACE BASIN NERRS 0545 72 220/ 5 1002.0S FORT PULASKI 0600 71 250/ 10/ 17 1002.3 SAPELO ISLAND 0600 72 240/ 19 1003.0 $$ ANZ835-935-AMZ111-154-330-350-352-354-370-450-454-472-250700- ...C-MAN AND BUOY OBSERVATIONS... STATION/POSITION TIME TEMP WIND PRES WAVE SWELL AIR SEA DIR/SP/G HT/PER HT/PER/DIR (UTC) (F) (DEG/KT/KT) (MB) (FT/S) (FT/S/D) BUOY 41004 0610 76 76 220/ 25/ 31 1001.4 BUOY 41008 0550 75 78 230/ 29/ 33 1002.4F 6/ 7 3/130/ 7 FOLLY BEACH CMAN 0600 76 220/ 22/ 28 1001.9F CAPERS NEARSHORE 0608 80 77 240/ 21/ 29 1000.7F FRIPP NEARSHORE 0608 75 78 240/ 21/ 29 1001.1F STATION/POSITION TIME TEMP WIND PRES WAVE SWELL AIR SEA DIR/SP/G HT/PER HT/PER/DIR (UTC) (F) (DEG/KT/KT) (MB) (FT/S) (FT/S/D) 5E ST. MARYS GA 0600 78 N/A 4/ 6 FRYING PAN BUOY 0610 76 76 210/ 21/ 27 1000.6 BUOY 41025 0550 74 74 170/ 19/ 23 1002.7F 6/ 8 3/180/ 8 CAPE LOOKOUT NC 0600 74 170/ 23/ 28 1001.3F BUOY 41002 0550 71 77 210/ 29/ 35 1008.5F 10/ 7 BUOY 41010 0610 79 78 230/ 17/ 21 1008.5 ST AUGUSTINE FL 0600 71 76 240/ 6/ 10 1006.7F $$

USA.gov is the U.S. government's official web portal to all federal, state and local government web resources and services.